Regional Weather Roundup
Issued by NWS

Home | Current Version | Previous Version | Graphics & Text | Print | Product List | Glossary On
Versions: 1 2 3 4 5 6 7 8 9 10 11 12 13 14 15 16 17 18 19 20 21 22 23 24 25 26 27 28 29 30 31 32 33 34 35 36 37 38 39 40 41 42 43 44 45 46 47 48 49 50
947
ASUS43 KIND 211409
RWRIN

WEATHER ROUNDUP FOR INDIANA
NATIONAL WEATHER SERVICE INDIANAPOLIS IN
1000 AM EDT SAT OCT 21 2017

NOTE: "FAIR" INDICATES FEW OR NO CLOUDS BELOW 12,000 FEET WITH NO
SIGNIFICANT WEATHER AND/OR OBSTRUCTIONS TO VISIBILITY.

* - STATION DOES NOT REPORT WEATHER SUCH AS PRECIPITATION OR FOG.

+ - STATION NOT QUALITY CONTROLLED BY THE NATIONAL WEATHER SERVICE.
    USE DATA WITH CAUTION...ESPECIALLY DEWPOINT AND RELATIVE
    HUMIDITY OBSERVATIONS.

INZ001>003-010>013-019-020-211500-
NORTHWEST INDIANA

CITY           SKY/WX    TMP DP  RH WIND       PRES   REMARKS
GARY /AIRPORT/ PTSUNNY   63  46  55 S8G20     30.11S
KNOX *+        PTSUNNY   61  48  63 S12       30.15S
LA PORTE +     PTSUNNY   58  50  74 S7        30.15S
MICHIGAN CITY+ CLOUDY    61  46  59 S9        30.13S
MONTICELLO +   MOSUNNY   57  51  79 SE6       30.16S
RENSSELAER +   MOSUNNY   61  45  55 S10       30.14S
VALPARAISO     PTSUNNY   60  50  69 S9        30.13S

$$

LMZ046-743>745-211500-
SOUTHERN LAKE MICHIGAN

STATION/POSITION TIME  TEMP    WIND        PRES    WAVE
                       AIR SEA DIR/SP/G            HT
                 (UTC) (F)     (DEG/KT/KT) (MB)    (FT)
BURNS HARBOR     1340   62     180/ 14/ 21 1020.0R
MICHIGAN CITY    1340   61     170/ 13/ 19   N/A
5NW MICH CITY    1400   60 58  180/ 12/ 16   N/A     1

$$

INZ004-005-014>016-021>024-211500-
NORTH CENTRAL INDIANA

CITY           SKY/WX    TMP DP  RH WIND       PRES   REMARKS
ELKHART        SUNNY     59  48  67 S7        30.17R
GOSHEN         MOSUNNY   61  49  64 S7        30.18R
LOGANSPORT +   MOSUNNY   59  50  72 S7        30.18F
PERU/GRISSOM   PTSUNNY   60  53  78 S8        30.18R
SOUTH BEND     PTSUNNY   58  50  75 S9        30.16R
WARSAW +       MOSUNNY   59  50  72 S5        30.19S

$$

INZ006>009-017-018-025>027-211500-
NORTHEAST INDIANA

CITY           SKY/WX    TMP DP  RH WIND       PRES   REMARKS
AUBURN +       MOSUNNY   59  52  77 S3        30.21S
FORT WAYNE     PTSUNNY   59  53  80 SE3       30.21R
HUNTINGTON +   MOSUNNY   59  53  80 S7        30.20S
KENDALLVILLE + MOSUNNY   60  52  77 S7        30.21R

$$

INZ028-029-035-036-043>045-051>053-211500-
WEST CENTRAL INDIANA

CITY           SKY/WX    TMP DP  RH WIND       PRES   REMARKS
CRAWFORDSVL +  MOSUNNY   55  50  82 S8        30.18R
GREENCASTLE +  CLOUDY    54  50  87 CALM      30.20S
LAFAYETTE      CLOUDY    58  51  78 S7        30.16S
TERRE HAUTE    MOSUNNY   56  49  77 S5        30.18R

$$

INZ030>032-037>040-046>048-054>057-064-065-211500-
CENTRAL INDIANA

CITY           SKY/WX    TMP DP  RH WIND       PRES   REMARKS
ANDERSON       MOSUNNY   63  52  67 S5        30.22R
CP ATTERBURY + CLOUDY    55  52  88 CALM      30.23R
COLUMBUS       SUNNY     55  52  88 CALM      30.23R
FRANKFORT +    MOSUNNY   60  53  78 S3        30.20S
GREENWOOD *+   MOSUNNY   62  54  75 S6        30.22R
INDIANAPOLIS   PTSUNNY   60  52  74 S9        30.21R
-EAGLE CREEK   PTSUNNY   60  52  74 VRB5      30.20R
KOKOMO +       MOSUNNY   60  53  77 S7        30.20S
MT COMFORT *+  MOSUNNY   61  55  82 S7        30.22R
SHELBYVILLE    CLOUDY    61  51  70 S9        30.22R
ZIONSVILLE +   CLOUDY    58  52  81 S5        30.21S

$$

INZ033-034-041-042-049-050-058-059-211500-
EAST CENTRAL INDIANA

CITY           SKY/WX    TMP DP  RH WIND       PRES   REMARKS
MUNCIE         MOSUNNY   65  51  60 S9        30.21S
RICHMOND +     CLOUDY    59  54  82 S9        30.25S

$$

INZ060-061-067>069-081>083-085>088-211500-
SOUTHWEST INDIANA

CITY           SKY/WX    TMP DP  RH WIND       PRES   REMARKS
EVANSVILLE     PTSUNNY   58  49  72 SE5       30.20R
HUNTINGBURG +  CLOUDY    58  50  75 SE7       30.21S
WASHINGTON +   PTSUNNY   58  49  71 S8        30.20R

$$

INZ062-063-066-070>080-084-089>092-211500-
SOUTH CENTRAL AND SOUTHEAST INDIANA

CITY           SKY/WX    TMP DP  RH WIND       PRES   REMARKS
BEDFORD +      CLOUDY    57  50  77 SE5       30.21S
BLOOMINGTON    CLOUDY    57  49  74 SE8       30.21R
MADISON *+     MOSUNNY   59  52  77 S5        30.26R
NORTH VERNON + MOSUNNY   59  50  72 S8        30.24R
SEYMOUR +      CLOUDY    59  52  77 S5        30.24R

$$





USA.gov is the U.S. government's official web portal to all federal, state and local government web resources and services.